| time (UTC) | temp F | wind direction | speed MPH | gust MPH | rain 1hr in | rain 24hr in | rain mn in | humidity % | barometer mb |
| 20260506070542 | 53 | 306 | 2.0 | 9.0 | 0.00 | 0.00 | 0.00 | 29 | 1015.1 |
| 20260506062458 | 54 | 90 | 1.0 | 10.0 | 0.00 | 0.00 | 0.00 | 28 | 1014.9 |
| 20260506061947 | 54 | 252 | 1.0 | 10.0 | 0.00 | 0.00 | 0.00 | 28 | 1014.9 |
| 20260506061442 | 54 | 161 | 2.0 | 7.0 | 0.00 | 0.00 | 0.00 | 28 | 1014.9 |
| 20260506060936 | 54 | 268 | 2.0 | 8.0 | 0.00 | 0.00 | 0.00 | 28 | 1014.9 |
| 20260506060429 | 54 | 250 | 1.0 | 8.0 | 0.00 | 0.00 | 0.00 | 28 | 1014.8 |
| 20260506051332 | 54 | 231 | 1.0 | 5.0 | 0.00 | 0.00 | 0.00 | 28 | 1014.5 |
| 20260506050823 | 54 | 176 | 2.0 | 6.0 | 0.00 | 0.00 | 0.00 | 28 | 1014.5 |
| 20260506050319 | 54 | 244 | 2.0 | 8.0 | 0.00 | 0.00 | 0.00 | 28 | 1014.5 |
| 20260506044759 | 54 | 208 | 2.0 | 7.0 | 0.00 | 0.00 | 0.00 | 29 | 1014.4 |
| 20260506044255 | 54 | 154 | 2.0 | 7.0 | 0.00 | 0.00 | 0.00 | 28 | 1014.4 |
| 20260506043242 | 54 | 249 | 2.0 | 7.0 | 0.00 | 0.00 | 0.00 | 28 | 1014.3 |
| 20260506041723 | 55 | 291 | 3.0 | 9.0 | 0.00 | 0.00 | 0.00 | 27 | 1014.2 |
| 20260506041218 | 55 | 248 | 4.0 | 8.0 | 0.00 | 0.00 | 0.00 | 27 | 1014.1 |
| 20260506040712 | 55 | 316 | 4.0 | 10.0 | 0.00 | 0.00 | 0.00 | 27 | 1014.2 |
| 20260506040206 | 55 | 238 | 4.0 | 11.0 | 0.00 | 0.00 | 0.00 | 27 | 1014.0 |
| 20260506035700 | 55 | 226 | 4.0 | 11.0 | 0.00 | 0.00 | 0.00 | 27 | 1013.8 |
| 20260506035154 | 55 | 148 | 3.0 | 10.0 | 0.00 | 0.00 | 0.00 | 26 | 1013.8 |
| 20260506034650 | 55 | 221 | 3.0 | 10.0 | 0.00 | 0.00 | 0.00 | 26 | 1013.7 |
| 20260506034141 | 55 | 240 | 3.0 | 10.0 | 0.00 | 0.00 | 0.00 | 26 | 1013.7 |
| 20260506033636 | 55 | 300 | 2.0 | 10.0 | 0.00 | 0.00 | 0.00 | 26 | 1013.6 |
| 20260506033130 | 55 | 285 | 2.0 | 13.0 | 0.00 | 0.00 | 0.00 | 26 | 1013.5 |
| 20260506032629 | 55 | 181 | 3.0 | 13.0 | 0.00 | 0.00 | 0.00 | 26 | 1013.5 |
| 20260506032129 | 56 | 207 | 3.0 | 11.0 | 0.00 | 0.00 | 0.00 | 26 | 1013.4 |
| 20260506031628 | 56 | 177 | 2.0 | 7.0 | 0.00 | 0.00 | 0.00 | 26 | 1013.3 |
| 20260506031129 | 56 | 248 | 3.0 | 9.0 | 0.00 | 0.00 | 0.00 | 26 | 1013.3 |
| 20260506030628 | 56 | 226 | 4.0 | 13.0 | 0.00 | 0.00 | 0.00 | 26 | 1013.3 |
| 20260506030126 | 56 | 257 | 4.0 | 13.0 | 0.00 | 0.00 | 0.00 | 26 | 1013.2 |
| 20260506025131 | 56 | 278 | 3.0 | 9.0 | 0.00 | 0.00 | 0.00 | 26 | 1013.0 |
| 20260506024628 | 56 | 242 | 3.0 | 11.0 | 0.00 | 0.00 | 0.00 | 26 | 1013.2 |
| 20260506024129 | 56 | 210 | 3.0 | 11.0 | 0.00 | 0.00 | 0.00 | 26 | 1013.0 |
| 20260506023630 | 56 | 219 | 3.0 | 9.0 | 0.00 | 0.00 | 0.00 | 26 | 1012.9 |
| 20260506023127 | 57 | 237 | 4.0 | 11.0 | 0.00 | 0.00 | 0.00 | 26 | 1012.8 |
| 20260506022624 | 57 | 326 | 4.0 | 11.0 | 0.00 | 0.00 | 0.00 | 25 | 1012.8 |
| 20260506022126 | 57 | 274 | 3.0 | 7.0 | 0.00 | 0.00 | 0.00 | 26 | 1012.8 |
| 20260506021125 | 57 | 258 | 4.0 | 11.0 | 0.00 | 0.00 | 0.00 | 25 | 1012.6 |
| 20260506020624 | 57 | 191 | 4.0 | 11.0 | 0.00 | 0.00 | 0.00 | 25 | 1012.4 |
| 20260506020126 | 58 | 272 | 4.0 | 12.0 | 0.00 | 0.00 | 0.00 | 25 | 1012.1 |
| 20260506015625 | 58 | 220 | 4.0 | 12.0 | 0.00 | 0.00 | 0.00 | 24 | 1012.1 |
| 20260506015125 | 58 | 242 | 4.0 | 11.0 | 0.00 | 0.00 | 0.00 | 24 | 1012.0 |
| 20260506014624 | 59 | 269 | 6.0 | 16.0 | 0.00 | 0.00 | 0.00 | 23 | 1011.8 |
| 20260506013627 | 60 | 136 | 5.0 | 11.0 | 0.00 | 0.00 | 0.00 | 22 | 1011.8 |
| 20260506012124 | 61 | 167 | 4.0 | 12.0 | 0.00 | 0.00 | 0.00 | 21 | 1011.7 |
| 20260506011628 | 62 | 232 | 4.0 | 9.0 | 0.00 | 0.00 | 0.00 | 21 | 1011.7 |
| 20260506011125 | 62 | 281 | 4.0 | 10.0 | 0.00 | 0.00 | 0.00 | 21 | 1011.7 |
| 20260506010123 | 61 | 218 | 6.0 | 14.0 | 0.00 | 0.00 | 0.00 | 22 | 1011.6 |
| 20260506005626 | 62 | 287 | 5.0 | 14.0 | 0.00 | 0.00 | 0.00 | 21 | 1011.6 |
| 20260506005125 | 63 | 236 | 3.0 | 8.0 | 0.00 | 0.00 | 0.00 | 20 | 1011.5 |
| 20260506004625 | 63 | 236 | 4.0 | 10.0 | 0.00 | 0.00 | 0.00 | 20 | 1011.3 |
| 20260506003106 | 62 | 290 | 5.0 | 13.0 | 0.00 | 0.00 | 0.00 | 20 | 1011.2 |
| 20260506002107 | 62 | 235 | 6.0 | 13.0 | 0.00 | 0.00 | 0.00 | 21 | 1011.2 |
| 20260506001604 | 61 | 252 | 4.0 | 13.0 | 0.00 | 0.00 | 0.00 | 22 | 1011.1 |
| 20260506001104 | 61 | 274 | 5.0 | 13.0 | 0.00 | 0.00 | 0.00 | 22 | 1011.0 |
| 20260506000606 | 61 | 301 | 6.0 | 14.0 | 0.00 | 0.00 | 0.00 | 22 | 1011.0 |
| 20260506000100 | 62 | 245 | 5.0 | 14.0 | 0.00 | 0.00 | 0.00 | 21 | 1011.1 |
| 20260505235559 | 64 | 286 | 4.0 | 13.0 | 0.00 | 0.00 | 0.00 | 19 | 1011.1 |
| 20260505235100 | 63 | 185 | 5.0 | 13.0 | 0.00 | 0.00 | 0.00 | 19 | 1011.0 |
| 20260505234600 | 63 | 197 | 5.0 | 13.0 | 0.00 | 0.00 | 0.00 | 20 | 1010.9 |
| 20260505233559 | 62 | 255 | 4.0 | 16.0 | 0.00 | 0.00 | 0.00 | 20 | 1010.9 |
| 20260505233057 | 64 | 216 | 4.0 | 12.0 | 0.00 | 0.00 | 0.00 | 19 | 1010.9 |
| 20260505232557 | 64 | 241 | 5.0 | 21.0 | 0.00 | 0.00 | 0.00 | 19 | 1010.9 |
| 20260505232057 | 63 | 309 | 6.0 | 21.0 | 0.00 | 0.00 | 0.00 | 20 | 1010.9 |
| 20260505231556 | 63 | 231 | 4.0 | 12.0 | 0.00 | 0.00 | 0.00 | 20 | 1010.8 |
| 20260505230056 | 63 | 272 | 5.0 | 15.0 | 0.00 | 0.00 | 0.00 | 21 | 1010.9 |
| 20260505225553 | 61 | 141 | 4.0 | 9.0 | 0.00 | 0.00 | 0.00 | 22 | 1011.0 |
| 20260505225058 | 61 | 259 | 6.0 | 16.0 | 0.00 | 0.00 | 0.00 | 21 | 1011.0 |
| 20260505224549 | 63 | 333 | 5.0 | 16.0 | 0.00 | 0.00 | 0.00 | 20 | 1011.0 |
| 20260505223553 | 62 | 264 | 4.0 | 11.0 | 0.00 | 0.00 | 0.00 | 21 | 1011.1 |
| 20260505223049 | 62 | 229 | 4.0 | 13.0 | 0.00 | 0.00 | 0.00 | 21 | 1011.0 |
| 20260505222548 | 63 | 217 | 6.0 | 13.0 | 0.00 | 0.00 | 0.00 | 21 | 1011.1 |
| 20260505222056 | 63 | 239 | 5.0 | 12.0 | 0.00 | 0.00 | 0.00 | 21 | 1011.0 |
| 20260505221547 | 62 | 190 | 5.0 | 13.0 | 0.00 | 0.00 | 0.00 | 23 | 1011.1 |
| 20260505220547 | 62 | 216 | 5.0 | 15.0 | 0.00 | 0.00 | 0.00 | 22 | 1011.3 |
| 20260505215546 | 62 | 274 | 4.0 | 11.0 | 0.00 | 0.00 | 0.00 | 22 | 1011.3 |
| 20260505215046 | 61 | 230 | 6.0 | 16.0 | 0.00 | 0.00 | 0.00 | 23 | 1011.3 |
| 20260505214043 | 62 | 215 | 4.0 | 15.0 | 0.00 | 0.00 | 0.00 | 22 | 1011.6 |
| 20260505213543 | 63 | 328 | 3.0 | 10.0 | 0.00 | 0.00 | 0.00 | 22 | 1011.7 |
| 20260505213043 | 62 | 203 | 3.0 | 11.0 | 0.00 | 0.00 | 0.00 | 22 | 1011.6 |
| 20260505212040 | 64 | 222 | 5.0 | 13.0 | 0.00 | 0.00 | 0.00 | 22 | 1011.8 |
| 20260505211532 | 64 | 207 | 5.0 | 11.0 | 0.00 | 0.00 | 0.00 | 22 | 1012.0 |
| 20260505211026 | 63 | 245 | 6.0 | 11.0 | 0.00 | 0.00 | 0.00 | 23 | 1012.0 |
| 20260505210521 | 63 | 181 | 4.0 | 11.0 | 0.00 | 0.00 | 0.00 | 23 | 1012.0 |
| 20260505210014 | 63 | 334 | 3.0 | 11.0 | 0.00 | 0.00 | 0.00 | 24 | 1012.0 |
| 20260505205002 | 62 | 228 | 4.0 | 10.0 | 0.00 | 0.00 | 0.00 | 25 | 1012.3 |
| 20260505204457 | 62 | 141 | 3.0 | 10.0 | 0.00 | 0.00 | 0.00 | 25 | 1012.1 |
| 20260505203444 | 60 | 160 | 1.0 | 8.0 | 0.00 | 0.00 | 0.00 | 27 | 1012.3 |
| 20260505202938 | 60 | 91 | 3.0 | 8.0 | 0.00 | 0.00 | 0.00 | 27 | 1012.0 |
| 20260505202432 | 61 | 140 | 3.0 | 12.0 | 0.00 | 0.00 | 0.00 | 27 | 1012.1 |
| 20260505201927 | 60 | 174 | 2.0 | 12.0 | 0.00 | 0.00 | 0.00 | 27 | 1012.3 |
| 20260505200917 | 59 | 228 | 3.0 | 7.0 | 0.00 | 0.00 | 0.00 | 29 | 1012.3 |
| 20260505200411 | 59 | 251 | 3.0 | 12.0 | 0.00 | 0.00 | 0.00 | 30 | 1012.4 |
| 20260505195356 | 59 | 294 | 3.0 | 12.0 | 0.00 | 0.00 | 0.00 | 31 | 1012.5 |
| 20260505194851 | 58 | 240 | 3.0 | 10.0 | 0.00 | 0.00 | 0.00 | 31 | 1012.4 |
| 20260505194344 | 58 | 179 | 3.0 | 9.0 | 0.00 | 0.00 | 0.00 | 32 | 1012.4 |
| 20260505193838 | 58 | 219 | 4.0 | 10.0 | 0.00 | 0.00 | 0.00 | 31 | 1012.5 |
| 20260505193332 | 59 | 255 | 3.0 | 10.0 | 0.00 | 0.00 | 0.00 | 31 | 1012.5 |
| 20260505192826 | 59 | 205 | 2.0 | 9.0 | 0.00 | 0.00 | 0.00 | 31 | 1012.5 |
| 20260505192320 | 58 | 282 | 3.0 | 8.0 | 0.00 | 0.00 | 0.00 | 32 | 1012.5 |
| 20260505191814 | 58 | 158 | 4.0 | 9.0 | 0.00 | 0.00 | 0.00 | 33 | 1012.6 |
| 20260505191308 | 57 | 231 | 4.0 | 9.0 | 0.00 | 0.00 | 0.00 | 33 | 1012.5 |
| 20260505190802 | 57 | 168 | 4.0 | 10.0 | 0.00 | 0.00 | 0.00 | 33 | 1012.5 |
| 20260505190256 | 58 | 247 | 3.0 | 10.0 | 0.00 | 0.00 | 0.00 | 33 | 1012.5 |
| 20260505185750 | 58 | 276 | 4.0 | 10.0 | 0.00 | 0.00 | 0.00 | 33 | 1012.5 |
| 20260505185244 | 58 | 210 | 3.0 | 10.0 | 0.00 | 0.00 | 0.00 | 33 | 1012.6 |
| 20260505184738 | 58 | 232 | 3.0 | 9.0 | 0.00 | 0.00 | 0.00 | 32 | 1012.6 |
| 20260505183727 | 57 | 281 | 3.0 | 7.0 | 0.00 | 0.00 | 0.00 | 33 | 1012.6 |
| 20260505183221 | 57 | 6 | 4.0 | 10.0 | 0.00 | 0.00 | 0.00 | 33 | 1012.5 |
| 20260505182717 | 57 | 238 | 4.0 | 11.0 | 0.00 | 0.00 | 0.00 | 32 | 1012.6 |
| 20260505182208 | 57 | 199 | 3.0 | 11.0 | 0.00 | 0.00 | 0.00 | 33 | 1012.5 |
| 20260505181156 | 57 | 198 | 2.0 | 9.0 | 0.00 | 0.00 | 0.00 | 33 | 1012.6 |
| 20260505180651 | 58 | 265 | 2.0 | 7.0 | 0.00 | 0.00 | 0.00 | 33 | 1012.5 |
| 20260505175639 | 57 | 226 | 3.0 | 12.0 | 0.00 | 0.00 | 0.00 | 33 | 1012.5 |
| 20260505175135 | 58 | 232 | 2.0 | 10.0 | 0.00 | 0.00 | 0.00 | 31 | 1012.6 |
| 20260505174627 | 59 | 223 | 3.0 | 9.0 | 0.00 | 0.00 | 0.00 | 31 | 1012.4 |
| 20260505174121 | 59 | 214 | 5.0 | 19.0 | 0.00 | 0.00 | 0.00 | 31 | 1012.5 |
| 20260505173615 | 59 | 182 | 4.0 | 19.0 | 0.00 | 0.00 | 0.00 | 30 | 1012.4 |
| 20260505173108 | 60 | 212 | 5.0 | 14.0 | 0.00 | 0.00 | 0.00 | 30 | 1012.3 |
| 20260505172612 | 60 | 205 | 6.0 | 16.0 | 0.00 | 0.00 | 0.00 | 29 | 1012.1 |
| 20260505171608 | 60 | 143 | 6.0 | 15.0 | 0.00 | 0.00 | 0.00 | 29 | 1012.3 |
| 20260505170606 | 59 | 198 | 6.0 | 17.0 | 0.00 | 0.00 | 0.00 | 31 | 1012.3 |
| 20260505170110 | 58 | 146 | 5.0 | 13.0 | 0.00 | 0.00 | 0.00 | 32 | 1012.1 |
| 20260505165107 | 59 | 124 | 5.0 | 16.0 | 0.00 | 0.00 | 0.00 | 32 | 1012.3 |
| 20260505164605 | 59 | 129 | 5.0 | 16.0 | 0.00 | 0.00 | 0.00 | 31 | 1012.3 |
| 20260505164111 | 58 | 122 | 6.0 | 15.0 | 0.00 | 0.00 | 0.00 | 31 | 1012.3 |
| 20260505163605 | 58 | 114 | 6.0 | 15.0 | 0.00 | 0.00 | 0.00 | 32 | 1012.3 |
| 20260505163109 | 58 | 205 | 6.0 | 18.0 | 0.00 | 0.00 | 0.00 | 31 | 1012.1 |
| 20260505162607 | 58 | 197 | 6.0 | 18.0 | 0.00 | 0.00 | 0.00 | 32 | 1012.1 |
| 20260505162106 | 58 | 137 | 7.0 | 16.0 | 0.00 | 0.00 | 0.00 | 32 | 1012.1 |
| 20260505161109 | 58 | 236 | 3.0 | 13.0 | 0.00 | 0.00 | 0.00 | 33 | 1012.1 |
| 20260505160600 | 58 | 236 | 3.0 | 13.0 | 0.00 | 0.00 | 0.00 | 32 | 1012.3 |
| 20260505153055 | 57 | 110 | 3.0 | 14.0 | 0.00 | 0.00 | 0.00 | 35 | 1012.3 |
| 20260505152552 | 56 | 107 | 5.0 | 14.0 | 0.00 | 0.00 | 0.00 | 36 | 1012.1 |
| 20260505152057 | 55 | 128 | 4.0 | 13.0 | 0.00 | 0.00 | 0.00 | 36 | 1012.0 |
| 20260505151554 | 56 | 94 | 4.0 | 12.0 | 0.00 | 0.00 | 0.00 | 36 | 1012.0 |
| 20260505151055 | 55 | 233 | 4.0 | 12.0 | 0.00 | 0.00 | 0.00 | 36 | 1012.1 |
| 20260505140549 | 53 | 121 | 2.0 | 8.0 | 0.00 | 0.00 | 0.00 | 41 | 1011.9 |
| 20260505124540 | 47 | 236 | 2.0 | 7.0 | 0.00 | 0.00 | 0.00 | 49 | 1011.7 |
| 20260505124038 | 47 | 144 | 2.0 | 7.0 | 0.00 | 0.00 | 0.00 | 49 | 1011.6 |
| 20260505123540 | 47 | 203 | 2.0 | 7.0 | 0.00 | 0.00 | 0.00 | 49 | 1011.5 |
| 20260505122034 | 47 | 187 | 3.0 | 9.0 | 0.00 | 0.00 | 0.00 | 49 | 1011.6 |
| 20260505121035 | 47 | 193 | 4.0 | 12.0 | 0.00 | 0.00 | 0.00 | 49 | 1011.5 |
| 20260505120539 | 47 | 201 | 4.0 | 12.0 | 0.00 | 0.00 | 0.00 | 49 | 1011.5 |
| 20260505115035 | 47 | 179 | 2.0 | 5.0 | 0.00 | 0.00 | 0.00 | 49 | 1011.8 |
| 20260505113540 | 47 | 217 | 1.0 | 6.0 | 0.00 | 0.00 | 0.00 | 49 | 1011.7 |
| 20260505113032 | 47 | 96 | 1.0 | 6.0 | 0.00 | 0.00 | 0.00 | 49 | 1011.8 |
| 20260505112020 | 48 | 178 | 2.0 | 5.0 | 0.00 | 0.00 | 0.00 | 48 | 1011.8 |
| 20260505111512 | 48 | 210 | 3.0 | 8.0 | 0.00 | 0.00 | 0.00 | 48 | 1011.8 |
| 20260505111009 | 48 | 194 | 3.0 | 8.0 | 0.00 | 0.00 | 0.00 | 48 | 1011.9 |
| 20260505110503 | 48 | 161 | 3.0 | 6.0 | 0.00 | 0.00 | 0.00 | 48 | 1011.9 |
| 20260505101915 | 48 | 88 | 2.0 | 9.0 | 0.00 | 0.00 | 0.00 | 47 | 1011.7 |
| 20260505101409 | 48 | 156 | 2.0 | 9.0 | 0.00 | 0.00 | 0.00 | 47 | 1011.7 |
| 20260505100905 | 48 | 154 | 2.0 | 7.0 | 0.00 | 0.00 | 0.00 | 46 | 1011.6 |
| 20260505100402 | 48 | 312 | 2.0 | 6.0 | 0.00 | 0.00 | 0.00 | 46 | 1011.7 |
| 20260505095846 | 48 | 103 | 2.0 | 6.0 | 0.00 | 0.00 | 0.00 | 46 | 1011.8 |
| 20260505095337 | 49 | 222 | 1.0 | 6.0 | 0.00 | 0.00 | 0.00 | 46 | 1011.8 |
| 20260505094831 | 49 | 228 | 1.0 | 7.0 | 0.00 | 0.00 | 0.00 | 45 | 1011.9 |
| 20260505094329 | 49 | 136 | 2.0 | 7.0 | 0.00 | 0.00 | 0.00 | 46 | 1011.9 |
| 20260505093822 | 49 | 101 | 2.0 | 8.0 | 0.00 | 0.00 | 0.00 | 45 | 1011.9 |
| 20260505093312 | 49 | 165 | 2.0 | 8.0 | 0.00 | 0.00 | 0.00 | 45 | 1011.9 |
| 20260505092810 | 49 | 218 | 2.0 | 6.0 | 0.00 | 0.00 | 0.00 | 45 | 1011.9 |
| 20260505092305 | 49 | 122 | 1.0 | 6.0 | 0.00 | 0.00 | 0.00 | 45 | 1011.9 |
| 20260505091755 | 49 | 238 | 1.0 | 7.0 | 0.00 | 0.00 | 0.00 | 44 | 1012.0 |
| 20260505090744 | 49 | 161 | 1.0 | 6.0 | 0.00 | 0.00 | 0.00 | 43 | 1012.1 |
| 20260505090237 | 49 | 226 | 1.0 | 5.0 | 0.00 | 0.00 | 0.00 | 42 | 1012.3 |
| 20260505085734 | 49 | 186 | 1.0 | 5.0 | 0.00 | 0.00 | 0.00 | 42 | 1012.5 |
| 20260505085227 | 49 | 163 | 2.0 | 7.0 | 0.00 | 0.00 | 0.00 | 41 | 1012.4 |
| 20260505084720 | 50 | 169 | 3.0 | 7.0 | 0.00 | 0.00 | 0.00 | 41 | 1012.4 |
| 20260505084213 | 50 | 193 | 2.0 | 6.0 | 0.00 | 0.00 | 0.00 | 41 | 1012.5 |
| 20260505083707 | 50 | 184 | 2.0 | 6.0 | 0.00 | 0.00 | 0.00 | 40 | 1012.5 |
| 20260505082656 | 51 | 116 | 2.0 | 7.0 | 0.00 | 0.00 | 0.00 | 40 | 1012.5 |
| 20260505082149 | 51 | 144 | 2.0 | 7.0 | 0.00 | 0.00 | 0.00 | 40 | 1012.6 |
| 20260505081643 | 51 | 127 | 2.0 | 6.0 | 0.00 | 0.00 | 0.00 | 40 | 1012.6 |
| 20260505081138 | 51 | 147 | 3.0 | 6.0 | 0.00 | 0.00 | 0.00 | 40 | 1012.6 |
| 20260505080633 | 51 | 238 | 3.0 | 8.0 | 0.00 | 0.00 | 0.00 | 40 | 1012.7 |
| 20260505080126 | 51 | 195 | 2.0 | 8.0 | 0.00 | 0.00 | 0.00 | 40 | 1012.8 |
| 20260505075113 | 51 | 200 | 3.0 | 9.0 | 0.00 | 0.00 | 0.00 | 39 | 1013.0 |
| 20260505074607 | 51 | 127 | 2.0 | 9.0 | 0.00 | 0.00 | 0.00 | 39 | 1012.9 |
| 20260505073049 | 51 | 236 | 2.0 | 8.0 | 0.00 | 0.00 | 0.00 | 38 | 1012.6 |
| 20260505072544 | 51 | 252 | 2.0 | 7.0 | 0.00 | 0.00 | 0.00 | 37 | 1012.6 |
| 20260505071531 | 52 | 141 | 4.0 | 10.0 | 0.00 | 0.00 | 0.00 | 36 | 1012.5 |